Albany, GA

6:38 PM EST on February 05, 2016 (GMT -0500)
Southwest Georgia Regional

Weather History for KABY - August, 2014

Change the Weather History Date:

Saturday, August 9, 2014

  Actual Average Record
Temperature  
Mean Temperature 85 °F 82 °F  
Max Temperature 97 °F 92 °F 103 °F (2007)
Min Temperature 73 °F 72 °F 62 °F (2002)
Degree Days  
Heating Degree Days 0 0  
Month to date heating degree days 0 0  
Since 1 June heating degree days 0 0  
Since 1 July heating degree days 0 0  
Cooling Degree Days 20 17  
Month to date cooling degree days 161 153  
Year to date cooling degree days 1546 1599  
Since 1 June cooling degree days 1152 1159  
Growing Degree Days 34 (Base 50)    
Moisture  
Dew Point 73 °F    
Average Humidity 72    
Maximum Humidity 100    
Minimum Humidity 43    
Precipitation  
Precipitation T in 0.16 in 3.35 in (2012)
Month to date precipitation 1.39  
Year to date precipitation 32.15  
Sea Level Pressure  
Sea Level Pressure 30.02 in    
Wind  
Wind Speed 4 mph (WNW)    
Max Wind Speed 22 mph    
Max Gust Speed 28 mph    
Visibility 8 miles    
Events Rain    
T = Trace of Precipitation, MM = Missing Value Source: NWS Daily Summary

Daily Weather History Graph

Daily Weather History Graph

Search for Another Location

Airport or City:

Trip Planner

Search our weather history database for the weather conditions in past years. The results will help you decide how hot, cold, wet, or windy it might be!

Date:

Astronomy

Aug. 09, 2014 Rise Set
Actual Time 6:58 AM EDT 8:25 PM EDT
Civil Twilight 6:32 AM EDT 8:51 PM EDT
Nautical Twilight 6:01 AM EDT 9:22 PM EDT
Astronomical Twilight 5:28 AM EDT 9:55 PM EDT
Moon 7:28 PM EDT (8/9) 5:38 AM EDT (8/9)
Length of Visible Light 14h 19m
Length of Day
13h 27m
Waxing Gibbous, 98% of the Moon is Illuminated
Aug 9
Waxing Gibbous
Aug 10
Full
Aug 17
Last Quarter
Aug 25
New
Sep 2
First Quarter

Hourly Weather History & Observations

Time (EDT) Temp. Heat Index Dew Point Humidity Pressure Visibility Wind Dir Wind Speed Gust Speed Precip Events Conditions
12:53 AM 78.1 °F - 73.0 °F 84% 30.02 in 10.0 mi NE 5.8 mph - N/A   Clear
1:53 AM 78.1 °F - 73.0 °F 84% 30.00 in 10.0 mi Calm Calm - N/A   Clear
2:53 AM 75.9 °F - 73.0 °F 91% 30.00 in 10.0 mi Calm Calm - N/A   Clear
3:53 AM 73.9 °F - 73.0 °F 97% 30.01 in 9.0 mi NW 5.8 mph - N/A   Clear
4:53 AM 73.9 °F - 72.0 °F 93% 30.02 in 9.0 mi WNW 5.8 mph - N/A   Partly Cloudy
5:53 AM 73.0 °F - 73.0 °F 100% 30.03 in 7.0 mi Calm Calm - N/A   Clear
6:53 AM 73.0 °F - 73.0 °F 100% 30.04 in 6.0 mi Calm Calm - N/A   Clear
7:53 AM 73.9 °F - 73.0 °F 97% 30.05 in 6.0 mi Calm Calm - N/A   Clear
8:53 AM 78.1 °F - 73.0 °F 84% 30.06 in 9.0 mi Calm Calm - N/A   Clear
9:53 AM 84.0 °F 90.2 °F 73.0 °F 69% 30.06 in 10.0 mi West 6.9 mph - N/A   Clear
10:53 AM 87.1 °F 94.5 °F 73.0 °F 63% 30.06 in 10.0 mi Variable 4.6 mph - N/A   Partly Cloudy
11:53 AM 89.1 °F 97.0 °F 73.0 °F 59% 30.06 in 10.0 mi West 9.2 mph - N/A   Mostly Cloudy
12:53 PM 91.0 °F 99.3 °F 73.0 °F 55% 30.05 in 10.0 mi West 9.2 mph - N/A   Mostly Cloudy
1:53 PM 91.9 °F 97.4 °F 70.0 °F 48% 30.02 in 10.0 mi West 11.5 mph - N/A   Mostly Cloudy
2:53 PM 93.0 °F 99.0 °F 70.0 °F 47% 30.00 in 10.0 mi SW 3.5 mph - N/A   Scattered Clouds
3:53 PM 93.9 °F 99.1 °F 69.1 °F 44% 29.96 in 10.0 mi Calm Calm - N/A   Mostly Cloudy
4:53 PM 95.0 °F 100.7 °F 69.1 °F 43% 29.95 in 10.0 mi WNW 6.9 mph - N/A   Mostly Cloudy
5:41 PM 86.0 °F 91.8 °F 71.6 °F 62% 29.97 in 1.2 mi Calm Calm - 0.00 in Rain Light Rain
5:53 PM 80.1 °F 85.1 °F 75.0 °F 85% 29.97 in 1.0 mi NW 15.0 mph 27.6 mph N/A Rain Heavy Rain
6:20 PM 77.0 °F - 75.2 °F 94% 29.98 in 7.0 mi ENE 12.7 mph - N/A   Mostly Cloudy
6:53 PM 77.0 °F - 75.0 °F 94% 30.00 in 7.0 mi ENE 8.1 mph - N/A   Mostly Cloudy
7:53 PM 78.1 °F - 75.0 °F 90% 30.02 in 10.0 mi South 3.5 mph - N/A   Partly Cloudy
8:53 PM 78.1 °F - 75.0 °F 90% 30.03 in 10.0 mi Calm Calm - N/A   Partly Cloudy
9:53 PM 77.0 °F - 75.0 °F 94% 30.03 in 10.0 mi South 5.8 mph - N/A   Clear